Weather History for Cleveland Burke, OH

Change the Weather History Date:

Tuesday, February 26, 2013

  Actual Average Record
Temperature  
Mean Temperature 34 °F -  
Max Temperature 39 °F 38 °F 55 °F (2009)
Min Temperature 28 °F 27 °F 10 °F (2014)
Degree Days  
Heating Degree Days 32    
Moisture  
Dew Point 29 °F    
Average Humidity 79    
Maximum Humidity 88    
Minimum Humidity 55    
Precipitation  
Precipitation 0.47 in - - ()
Sea Level Pressure  
Sea Level Pressure 29.75 in    
Wind  
Wind Speed 10 mph (East)    
Max Wind Speed 17 mph    
Max Gust Speed 28 mph    
Visibility 9 miles    
Events Rain    
Averages and records for this station are not official NWS values.
T = Trace of Precipitation, MM = Missing Value Source: NWS Daily Summary

Daily Weather History Graph

Daily Weather History Graph

Search for Another Location

Airport:

Trip Planner

Search our weather history database for the weather conditions in past years. The results will help you decide how hot, cold, wet, or windy it might be!

Date:

Astronomy

Feb. 26, 2013 Rise Set
Actual Time 7:05 AM EST 6:14 PM EST
Civil Twilight 6:37 AM EST 6:42 PM EST
Nautical Twilight 6:05 AM EST 7:14 PM EST
Astronomical Twilight 5:33 AM EST 7:46 PM EST
Moon 7:31 PM EST (2/26) 7:06 AM EST (2/26)
Length of Visible Light 12h 04m
Length of Day
11h 08m
Full, 99% of the Moon is Illuminated
Feb 26
Full
Mar 4
Last Quarter
Mar 11
New
Mar 19
First Quarter
Mar 27
Full

Hourly Weather History & Observations

Time (EST) Temp. Windchill Dew Point Humidity Pressure Visibility Wind Dir Wind Speed Gust Speed Precip Events Conditions
12:53 AM 28.0 °F 20.8 °F 25.0 °F 88% 30.09 in 10.0 mi NE 6.9 mph - N/A   Clear
1:53 AM 28.0 °F 21.7 °F 23.0 °F 81% 30.06 in 10.0 mi NE 5.8 mph - N/A   Clear
2:53 AM 28.0 °F 24.2 °F 23.0 °F 81% 30.06 in 10.0 mi ENE 3.5 mph - N/A   Clear
3:53 AM 28.9 °F 20.4 °F 25.0 °F 85% 30.02 in 10.0 mi NE 9.2 mph - N/A   Clear
4:53 AM 28.0 °F 18.1 °F 25.0 °F 88% 29.99 in 10.0 mi NE 11.5 mph - N/A   Clear
5:53 AM 28.9 °F 23.9 °F 24.1 °F 82% 29.97 in 10.0 mi ENE 4.6 mph - N/A   Clear
6:53 AM 34.0 °F 29.8 °F 21.9 °F 61% 29.96 in 10.0 mi East 4.6 mph - N/A   Clear
7:53 AM 35.1 °F 30.1 °F 21.9 °F 59% 29.95 in 10.0 mi East 5.8 mph - N/A   Clear
8:53 AM 36.0 °F 28.5 °F 23.0 °F 59% 29.92 in 10.0 mi East 10.4 mph - N/A   Clear
9:53 AM 37.0 °F 28.9 °F 23.0 °F 57% 29.89 in 10.0 mi East 12.7 mph - N/A   Clear
10:53 AM 37.9 °F 30.0 °F 23.0 °F 55% 29.88 in 10.0 mi East 12.7 mph - N/A   Overcast
11:53 AM 37.9 °F 30.9 °F 27.0 °F 65% 29.82 in 9.0 mi East 10.4 mph - 0.01 in Rain Light Rain
12:53 PM 37.0 °F 29.3 °F 30.0 °F 76% 29.78 in 7.0 mi East 11.5 mph - 0.03 in Rain Light Rain
1:53 PM 37.9 °F 28.5 °F 30.9 °F 76% 29.72 in 9.0 mi East 17.3 mph 23.0 mph 0.00 in Rain Light Rain
2:53 PM 37.9 °F 30.9 °F 33.1 °F 83% 29.66 in 6.0 mi East 10.4 mph - 0.03 in Rain Light Rain
3:37 PM 37.4 °F 28.2 °F 32.0 °F 81% 29.63 in 9.0 mi East 16.1 mph 24.2 mph 0.01 in Rain Light Rain
3:53 PM 37.0 °F 27.4 °F 33.1 °F 86% 29.65 in 3.0 mi ESE 17.3 mph 25.3 mph 0.05 in Rain Rain
4:20 PM 37.4 °F 29.3 °F 33.8 °F 87% 29.64 in 2.5 mi SE 12.7 mph 25.3 mph 0.09 in Rain Rain
4:53 PM 37.0 °F 29.8 °F 33.1 °F 86% 29.65 in 5.0 mi ESE 10.4 mph 23.0 mph 0.13 in Rain Light Rain
5:31 PM 37.4 °F 29.8 °F 33.8 °F 87% 29.60 in 10.0 mi ESE 11.5 mph 26.5 mph 0.03 in   Overcast
5:53 PM 37.0 °F 27.7 °F 33.1 °F 86% 29.60 in 10.0 mi ESE 16.1 mph 24.2 mph 0.04 in   Overcast
6:53 PM 37.9 °F 28.9 °F 34.0 °F 86% 29.57 in 6.0 mi ESE 16.1 mph 27.6 mph 0.09 in Rain Rain
7:53 PM 37.9 °F 29.6 °F 34.0 °F 86% 29.56 in 8.0 mi SE 13.8 mph 27.6 mph 0.06 in Rain Light Rain
8:40 PM 37.4 °F 30.3 °F 33.8 °F 87% 29.54 in 10.0 mi ESE 10.4 mph 24.2 mph 0.03 in Rain Light Rain
8:53 PM 37.9 °F 32.1 °F 34.0 °F 86% 29.55 in 10.0 mi ESE 8.1 mph 17.3 mph 0.03 in   Overcast
9:53 PM 37.9 °F 30.0 °F 34.0 °F 86% 29.54 in 10.0 mi SE 12.7 mph 21.9 mph N/A   Overcast
10:53 PM 39.0 °F 30.6 °F 34.0 °F 82% 29.52 in 10.0 mi SE 15.0 mph 24.2 mph N/A   Mostly Cloudy
11:24 PM 39.2 °F 30.5 °F 33.8 °F 81% 29.50 in 10.0 mi SE 16.1 mph 21.9 mph N/A   Overcast
11:53 PM 39.0 °F 31.0 °F 34.0 °F 82% 29.50 in 10.0 mi SE 13.8 mph 21.9 mph N/A   Overcast